K5GHS-1 Weather Reports


Display with metric or nautical units.
time (UTC)temp
F
wind
direction
speed
MPH
gust
MPH
rain 1hr
in
rain 24hr
in
rain mn
in
humidity
%
barometer
mb
20210302143622 49 43 1.0 2.0 0.00 0.00 0.00 55 1026.5
20210302142308 46 54 0.0 2.0 0.00 0.00 0.00 66 1026.3
20210302141804 46 51 1.0 2.0 0.00 0.00 0.00 67 1026.3
20210302141306 44 76 0.0 2.0 0.00 0.00 0.00 68 1026.3
20210302140806 43 48 0.0 2.0 0.00 0.00 0.00 73 1025.9
20210302140316 42 50 0.0 2.0 0.00 0.00 0.00 78 1025.9
20210302135802 41 72 0.0 0.0 0.00 0.00 0.00 82 1025.9
20210302135306 40 72 0.0 0.0 0.00 0.00 0.00 85 1025.9
20210302134803 38 72 0.0 0.0 0.00 0.00 0.00 87 1026.1
20210302134305 38 72 0.0 0.0 0.00 0.00 0.00 87 1026.0
20210302133804 37 72 0.0 0.0 0.00 0.00 0.00 88 1025.7
20210302133455 36 72 0.0 0.0 0.00 0.00 0.00 88 1026.0
20210302132944 37 72 0.0 0.0 0.00 0.00 0.00 88 1025.9
20210302132307 37 72 0.0 0.0 0.00 0.00 0.00 87 1025.9
20210302131803 37 72 0.0 0.0 0.00 0.00 0.00 87 1026.0
20210302131301 37 72 0.0 0.0 0.00 0.00 0.00 87 1025.7
20210302130808 37 72 0.0 0.0 0.00 0.00 0.00 87 1025.9
20210302130334 37 73 0.0 0.0 0.00 0.00 0.00 86 1025.6
20210302125803 37 73 0.0 0.0 0.00 0.00 0.00 86 1025.8
20210302125344 38 73 0.0 0.0 0.00 0.00 0.00 86 1025.7
20210302124957 37 73 0.0 0.0 0.00 0.00 0.00 86 1025.6
20210302124302 37 73 0.0 0.0 0.00 0.00 0.00 87 1025.8
20210302123802 37 73 0.0 0.0 0.00 0.00 0.00 87 1025.8
20210302123411 37 73 0.0 0.0 0.00 0.00 0.00 87 1026.0
20210302122314 37 73 0.0 0.0 0.00 0.00 0.00 88 1026.0
20210302121810 37 73 0.0 0.0 0.00 0.00 0.00 87 1026.1
20210302121314 37 73 0.0 0.0 0.00 0.00 0.00 87 1025.8
20210302120805 37 73 0.0 0.0 0.00 0.00 0.00 87 1025.8
20210302120308 37 72 0.0 0.0 0.00 0.00 0.00 86 1025.9
20210302115801 37 73 0.0 0.0 0.00 0.00 0.00 86 1026.0
20210302115311 37 73 0.0 0.0 0.00 0.00 0.00 86 1026.0
20210302114302 37 73 0.0 0.0 0.00 0.00 0.00 85 1025.8
20210302113807 38 72 0.0 0.0 0.00 0.00 0.00 84 1025.9
20210302113356 38 73 0.0 0.0 0.00 0.00 0.00 82 1025.4
20210302112319 38 73 0.0 0.0 0.00 0.00 0.00 82 1025.2
20210302111807 39 73 0.0 0.0 0.00 0.00 0.00 82 1025.3
20210302111304 39 73 0.0 0.0 0.00 0.00 0.00 82 1025.4
20210302110808 39 72 0.0 0.0 0.00 0.00 0.00 81 1025.3
20210302110305 39 72 0.0 0.0 0.00 0.00 0.00 80 1025.5
20210302105803 40 72 0.0 0.0 0.00 0.00 0.00 79 1025.3
20210302105435 39 72 0.0 0.0 0.00 0.00 0.00 80 1025.3
20210302104853 40 72 0.0 0.0 0.00 0.00 0.00 78 1025.2
20210302104303 40 72 0.0 0.0 0.00 0.00 0.00 77 1025.3
20210302103810 41 72 0.0 0.0 0.00 0.00 0.00 76 1025.3
20210302103631 41 72 0.0 0.0 0.00 0.00 0.00 75 1025.2
20210302103106 42 72 0.0 0.0 0.00 0.00 0.00 74 1025.3
20210302102307 42 72 0.0 0.0 0.00 0.00 0.00 73 1025.3
20210302101806 42 72 0.0 0.0 0.00 0.00 0.00 74 1025.3
20210302101305 42 73 0.0 0.0 0.00 0.00 0.00 77 1025.3
20210302100804 41 72 0.0 0.0 0.00 0.00 0.00 77 1025.4
20210302100314 42 72 0.0 0.0 0.00 0.00 0.00 76 1025.5
20210302095803 42 72 0.0 0.0 0.00 0.00 0.00 74 1025.6
20210302095406 42 72 0.0 0.0 0.00 0.00 0.00 74 1025.6
20210302094845 42 72 0.0 0.0 0.00 0.00 0.00 73 1025.6
20210302094303 43 72 0.0 0.0 0.00 0.00 0.00 73 1025.5
20210302093802 44 72 0.0 0.0 0.00 0.00 0.00 72 1025.5
20210302093642 44 72 0.0 0.0 0.00 0.00 0.00 71 1025.6
20210302093339 44 72 0.0 0.0 0.00 0.00 0.00 71 1025.7
20210302092348 44 72 0.0 0.0 0.00 0.00 0.00 71 1025.6
20210302091804 45 72 0.0 0.0 0.00 0.00 0.00 69 1025.7
20210302091304 45 72 0.0 0.0 0.00 0.00 0.00 67 1025.9
20210302091127 45 72 0.0 0.0 0.00 0.00 0.00 66 1025.9
20210302090959 45 72 0.0 0.0 0.00 0.00 0.00 67 1025.9
20210302085948 45 72 0.0 0.0 0.00 0.00 0.00 66 1026.2
20210302085306 45 72 0.0 0.0 0.00 0.00 0.00 65 1026.0
20210302084802 45 72 0.0 0.0 0.00 0.00 0.00 64 1026.0
20210302084303 45 72 0.0 0.0 0.00 0.00 0.00 65 1026.2
20210302083850 46 72 0.0 0.0 0.00 0.00 0.00 65 1026.3
20210302083308 46 72 0.0 0.0 0.00 0.00 0.00 64 1026.3
20210302082802 46 72 0.0 0.0 0.00 0.00 0.00 65 1026.4
20210302082611 46 72 0.0 0.0 0.00 0.00 0.00 65 1026.1
20210302081948 46 72 0.0 0.0 0.00 0.00 0.00 69 1026.2
20210302081304 46 72 0.0 0.0 0.00 0.00 0.00 71 1026.8
20210302080807 46 72 0.0 0.0 0.00 0.00 0.00 70 1026.7
20210302080305 46 72 0.0 0.0 0.00 0.00 0.00 69 1026.8
20210302075911 46 72 0.0 0.0 0.00 0.00 0.00 69 1026.6
20210302074823 46 72 0.0 0.0 0.00 0.00 0.00 67 1026.8
20210302074303 46 72 0.0 0.0 0.00 0.00 0.00 66 1026.7
20210302073802 47 72 0.0 0.0 0.00 0.00 0.00 64 1026.5
20210302073512 47 72 0.0 0.0 0.00 0.00 0.00 63 1026.5
20210302073045 47 72 0.0 0.0 0.00 0.00 0.00 63 1026.5
20210302072319 47 72 0.0 0.0 0.00 0.00 0.00 62 1026.7
20210302071811 47 71 0.0 0.0 0.00 0.00 0.00 63 1026.6
20210302065846 48 72 0.0 0.0 0.00 0.00 0.00 59 1026.9
20210302065415 48 72 0.0 0.0 0.00 0.00 0.00 60 1026.6
20210302064818 48 72 0.0 0.0 0.00 0.00 0.00 60 1026.5
20210302064257 48 72 0.0 0.0 0.00 0.00 0.00 61 1026.7
20210302063954 48 74 0.0 0.0 0.00 0.00 0.00 61 1026.6
20210302062824 47 71 0.0 0.0 0.00 0.00 0.00 70 1027.2
20210302061653 48 71 0.0 0.0 0.00 0.00 0.00 70 1027.1
20210302060533 48 72 0.0 0.0 0.00 0.16 0.16 69 1027.0
20210302055900 48 61 1.0 2.0 0.00 0.16 0.16 69 1027.2
20210302055615 48 106 1.0 2.0 0.00 0.16 0.16 69 1027.1
20210302054551 48 83 1.0 2.0 0.00 0.00 0.16 70 1027.1
20210302053801 48 70 0.0 0.0 0.00 0.00 0.16 70 1027.0
20210302053447 48 79 1.0 2.0 0.00 0.00 0.16 71 1027.0
20210302053152 48 73 0.0 2.0 0.00 0.00 0.16 72 1027.1
20210302052306 48 77 0.0 3.0 0.00 0.00 0.16 72 1026.9
20210302051804 48 62 0.0 2.0 0.00 0.00 0.16 76 1026.9
20210302051257 48 77 0.0 2.0 0.00 0.00 0.16 80 1027.0
20210302050757 48 71 0.0 2.0 0.00 0.00 0.16 81 1027.0
20210302050257 47 78 1.0 2.0 0.00 0.00 0.16 82 1026.9
20210302045758 47 79 0.0 0.0 0.00 0.00 0.16 82 1026.9
20210302045258 47 75 0.0 0.0 0.00 0.00 0.16 82 1027.0
20210302044816 47 76 0.0 0.0 0.00 0.00 0.16 82 1027.2
20210302044300 47 76 0.0 0.0 0.00 0.00 0.16 81 1027.4
20210302043757 48 75 0.0 0.0 0.00 0.00 0.16 80 1027.0
20210302043427 48 78 0.0 0.0 0.00 0.00 0.16 79 1027.1
20210302043027 49 79 0.0 0.0 0.00 0.00 0.16 79 1026.8
20210302042300 49 77 0.0 0.0 0.00 0.00 0.16 78 1026.8
20210302041802 49 122 2.0 3.0 0.00 0.00 0.16 77 1026.7
20210302041258 49 80 0.0 2.0 0.00 0.00 0.16 77 1026.6
20210302040759 49 85 1.0 2.0 0.00 0.00 0.16 76 1026.8
20210302040300 50 72 1.0 2.0 0.00 0.00 0.16 75 1026.8
20210302035758 50 67 0.0 0.0 0.00 0.00 0.16 75 1026.7
20210302035257 50 73 1.0 2.0 0.00 0.00 0.16 74 1026.7
20210302034826 50 77 0.0 3.0 0.00 0.00 0.16 73 1026.7
20210302034258 50 71 0.0 2.0 0.00 0.00 0.16 73 1026.7
20210302033757 50 82 1.0 3.0 0.00 0.00 0.16 72 1026.7
20210302033331 50 82 0.0 2.0 0.00 0.00 0.16 74 1026.7
20210302032800 50 77 0.0 0.0 0.00 0.00 0.16 75 1026.7
20210302032307 49 77 0.0 0.0 0.00 0.00 0.16 76 1026.7
20210302031932 49 77 0.0 0.0 0.00 0.00 0.16 75 1026.6
20210302031451 49 77 0.0 0.0 0.00 0.00 0.16 75 1026.4
20210302030829 50 77 0.0 0.0 0.00 0.00 0.16 73 1026.3
20210302030309 50 77 0.0 0.0 0.00 0.00 0.16 73 1026.6
20210302025758 50 75 0.0 0.0 0.00 0.00 0.16 73 1026.4
20210302025259 51 76 0.0 0.0 0.00 0.00 0.16 72 1026.3
20210302024757 50 75 0.0 0.0 0.00 0.00 0.16 72 1026.1
20210302024257 50 74 0.0 0.0 0.00 0.00 0.16 72 1026.2
20210302023803 51 74 0.0 0.0 0.00 0.00 0.16 72 1025.9
20210302023257 51 72 0.0 0.0 0.00 0.00 0.16 71 1025.9
20210302022831 51 72 0.0 0.0 0.00 0.00 0.16 70 1025.9
20210302022309 51 79 0.0 0.0 0.00 0.00 0.16 70 1026.0
20210302021800 52 80 0.0 0.0 0.00 0.00 0.16 69 1026.0
20210302021259 52 87 1.0 2.0 0.00 0.00 0.16 68 1026.0
20210302020805 52 83 1.0 2.0 0.00 0.00 0.16 68 1026.0
20210302020300 52 81 0.0 2.0 0.00 0.00 0.16 68 1025.6
20210302015800 52 102 1.0 3.0 0.00 0.00 0.16 67 1025.8
20210302015258 52 80 0.0 2.0 0.00 0.00 0.16 67 1025.7
20210302014852 52 82 1.0 2.0 0.00 0.00 0.16 67 1025.7
20210302014300 52 83 1.0 3.0 0.00 0.00 0.16 65 1025.4
20210302013848 52 78 0.0 2.0 0.00 0.00 0.16 65 1025.5
20210302013640 53 80 1.0 2.0 0.00 0.00 0.16 63 1025.5
20210302013428 52 125 2.0 4.0 0.00 0.00 0.16 61 1025.5
20210302012305 52 73 0.0 2.0 0.00 0.00 0.16 62 1025.3
20210302010938 53 72 0.0 0.0 0.00 0.00 0.16 59 1025.3
20210302010354 53 72 0.0 0.0 0.00 0.00 0.16 59 1025.2
20210302005758 53 76 0.0 0.0 0.00 0.00 0.16 58 1025.2
20210302005310 53 76 1.0 2.0 0.00 0.00 0.16 58 1025.2
20210302004919 54 71 0.0 0.0 0.00 0.00 0.16 57 1025.0
20210302004258 54 71 0.0 0.0 0.00 0.00 0.16 57 1025.0
20210302003758 54 71 0.0 2.0 0.00 0.00 0.16 57 1025.0
20210302003542 54 69 0.0 0.0 0.00 0.00 0.16 56 1025.0
20210302003325 54 51 0.0 2.0 0.00 0.00 0.16 56 1024.9
20210302002300 54 71 0.0 2.0 0.00 0.00 0.16 55 1024.8
20210302001806 55 59 0.0 2.0 0.00 0.00 0.16 56 1025.1
20210302001306 55 52 0.0 0.0 0.00 0.00 0.16 55 1025.2
20210302000810 55 53 0.0 0.0 0.00 0.00 0.16 55 1025.0
20210302000259 55 50 1.0 2.0 0.00 0.00 0.16 54 1025.0
20210301235758 55 73 2.0 3.0 0.00 0.00 0.16 53 1024.9
20210301235258 56 48 2.0 2.0 0.00 0.00 0.16 54 1024.9
20210301234831 56 71 1.0 3.0 0.00 0.00 0.16 53 1025.1
20210301234258 56 79 0.0 3.0 0.00 0.00 0.16 53 1024.8
20210301233758 56 41 2.0 3.0 0.00 0.00 0.16 53 1024.6
20210301233419 56 39 1.0 2.0 0.00 0.00 0.16 52 1024.4
20210301233218 56 319 1.0 4.0 0.00 0.00 0.16 52 1024.5
20210301232301 56 38 1.0 6.0 0.00 0.00 0.16 51 1024.5
20210301231806 56 41 2.0 4.0 0.00 0.00 0.16 50 1024.5
20210301231305 56 4 1.0 6.0 0.00 0.00 0.16 51 1024.2
20210301230810 57 326 3.0 4.0 0.00 0.00 0.16 49 1024.2
20210301230312 57 26 2.0 4.0 0.00 0.00 0.16 49 1024.1
20210301225757 57 4 4.0 6.0 0.00 0.00 0.16 51 1024.2
20210301225301 57 18 1.0 3.0 0.00 0.00 0.16 52 1024.4
20210301224812 57 218 2.0 5.0 0.00 0.00 0.16 52 1024.3
20210301224256 57 344 3.0 4.0 0.00 0.00 0.16 50 1024.3
20210301223800 57 22 2.0 4.0 0.00 0.00 0.16 50 1024.5
20210301223420 57 20 2.0 4.0 0.00 0.00 0.16 51 1024.2
20210301222948 58 55 2.0 7.0 0.00 0.00 0.16 50 1024.3
20210301222259 58 45 2.0 3.0 0.00 0.00 0.16 50 1024.4
20210301221756 58 50 1.0 4.0 0.00 0.00 0.16 49 1024.4
20210301221259 58 36 0.0 4.0 0.00 0.00 0.16 49 1024.4
20210301220759 58 67 2.0 6.0 0.00 0.00 0.16 50 1024.1
20210301220301 58 48 2.0 5.0 0.00 0.00 0.16 49 1024.4
20210301215756 59 47 3.0 4.0 0.00 0.00 0.16 49 1024.3
20210301215259 59 320 4.0 6.0 0.00 0.00 0.16 47 1024.5
20210301214936 58 357 4.0 9.0 0.00 0.00 0.16 48 1024.5
20210301214310 59 10 2.0 7.0 0.00 0.00 0.16 47 1024.6
20210301213801 59 53 1.0 6.0 0.00 0.00 0.16 46 1024.4
20210301213558 59 18 4.0 6.0 0.00 0.00 0.16 46 1024.4
20210301213215 60 20 2.0 6.0 0.00 0.00 0.16 46 1024.4
20210301212258 59 50 1.0 6.0 0.00 0.00 0.16 46 1024.2
20210301211758 59 334 4.0 5.0 0.00 0.00 0.16 46 1024.3
20210301211317 59 34 2.0 5.0 0.00 0.00 0.16 46 1024.5
20210301210756 58 107 2.0 5.0 0.00 0.00 0.16 47 1024.7
20210301210257 58 348 2.0 4.0 0.00 0.00 0.16 47 1024.6
20210301205821 59 26 4.0 7.0 0.00 0.00 0.16 45 1024.3
20210301205258 58 1 2.0 4.0 0.00 0.00 0.16 46 1024.5
20210301205020 60 352 4.0 6.0 0.00 0.00 0.16 46 1024.4
20210301204300 59 30 1.0 4.0 0.00 0.00 0.16 47 1024.4
20210301203756 58 96 2.0 5.0 0.00 0.00 0.16 48 1024.7
20210301203448 59 19 1.0 7.0 0.00 0.00 0.16 49 1024.6
20210301203012 57 32 2.0 3.0 0.00 0.00 0.16 50 1024.8
20210301202259 58 43 2.0 6.0 0.00 0.00 0.16 48 1024.6
20210301201757 56 29 2.0 5.0 0.00 0.00 0.16 51 1024.6
20210301201256 56 51 1.0 6.0 0.00 0.00 0.16 51 1024.9
20210301200758 56 15 2.0 5.0 0.00 0.00 0.16 53 1024.4
20210301200256 56 42 2.0 5.0 0.00 0.00 0.16 52 1024.7
20210301195801 56 63 2.0 6.0 0.00 0.00 0.16 53 1024.5
20210301195257 56 41 1.0 4.0 0.00 0.00 0.16 53 1024.9
20210301195031 56 20 2.0 6.0 0.00 0.00 0.16 54 1024.5
20210301194257 56 318 4.0 10.0 0.00 0.00 0.16 53 1024.8
20210301193758 55 332 4.0 4.0 0.00 0.00 0.16 54 1024.8
20210301193423 55 5 3.0 4.0 0.00 0.00 0.16 55 1024.8
20210301192843 55 2 2.0 9.0 0.00 0.00 0.16 55 1024.6
20210301192259 55 111 1.0 6.0 0.00 0.00 0.16 56 1024.9
20210301191801 54 357 3.0 9.0 0.00 0.00 0.16 56 1025.1
20210301191305 54 17 3.0 6.0 0.00 0.00 0.16 57 1024.6
20210301190809 54 47 2.0 6.0 0.00 0.00 0.16 57 1025.0
20210301190259 54 27 3.0 5.0 0.00 0.00 0.16 56 1024.9
20210301185757 55 40 3.0 7.0 0.00 0.00 0.16 55 1025.1
20210301185256 54 43 3.0 4.0 0.00 0.00 0.16 57 1025.2
20210301184813 54 28 2.0 4.0 0.00 0.00 0.16 57 1025.3
20210301184256 54 17 2.0 5.0 0.00 0.00 0.16 58 1025.4
20210301183820 55 352 2.0 6.0 0.00 0.00 0.16 55 1025.4
20210301183640 55 62 1.0 6.0 0.00 0.00 0.16 58 1025.3
20210301183125 54 21 2.0 4.0 0.00 0.00 0.16 58 1025.4
20210301182259 54 12 3.0 5.0 0.00 0.00 0.16 59 1025.4
20210301181801 53 12 2.0 4.0 0.00 0.00 0.16 60 1025.6
20210301181259 52 34 3.0 6.0 0.00 0.00 0.16 61 1025.4
20210301180759 53 31 4.0 5.0 0.00 0.00 0.16 62 1025.3
20210301180257 52 29 2.0 5.0 0.00 0.00 0.16 60 1025.3
20210301175756 51 3 3.0 7.0 0.00 0.00 0.16 62 1025.4
20210301175258 52 19 3.0 7.0 0.00 0.00 0.16 62 1025.5
20210301174829 52 18 5.0 7.0 0.00 0.00 0.16 64 1025.4
20210301174257 52 27 4.0 5.0 0.00 0.00 0.16 63 1025.4
20210301173757 51 25 2.0 6.0 0.00 0.00 0.16 64 1025.5
20210301173344 50 68 1.0 4.0 0.00 0.00 0.16 66 1025.7
20210301172922 49 19 2.0 6.0 0.00 0.00 0.16 68 1025.7
20210301172300 50 15 5.0 6.0 0.00 0.00 0.16 69 1025.5
20210301171758 51 31 5.0 7.0 0.00 0.00 0.16 65 1025.6
20210301171257 51 62 4.0 7.0 0.00 0.00 0.16 67 1025.3
20210301170757 50 29 4.0 5.0 0.00 0.00 0.16 69 1025.0
20210301170259 50 30 4.0 9.0 0.00 0.00 0.16 69 1024.9
20210301165757 49 41 4.0 9.0 0.00 0.00 0.16 70 1024.7
20210301165258 49 33 6.0 10.0 0.00 0.00 0.16 71 1024.8
20210301164826 47 357 2.0 4.0 0.00 0.00 0.16 79 1024.9
20210301164301 46 39 4.0 6.0 0.00 0.00 0.16 80 1024.8
20210301163803 46 28 2.0 6.0 0.00 0.00 0.16 81 1024.7
20210301163458 46 14 5.0 9.0 0.00 0.00 0.16 81 1024.5
20210301163144 45 26 3.0 7.0 0.00 0.00 0.16 82 1024.9
20210301162300 45 32 2.0 7.0 0.00 0.00 0.16 82 1024.8
20210301161757 45 339 4.0 10.0 0.00 0.00 0.16 82 1024.6
20210301161258 45 28 3.0 7.0 0.00 0.00 0.16 84 1024.3
20210301160801 45 15 5.0 10.0 0.00 0.00 0.16 85 1024.4
20210301160300 45 6 3.0 4.0 0.00 0.00 0.16 86 1024.3
20210301155800 45 29 4.0 10.0 0.00 0.00 0.16 88 1024.0
20210301155257 45 340 3.0 7.0 0.00 0.00 0.16 89 1024.0
20210301154812 45 19 3.0 9.0 0.00 0.00 0.16 89 1024.2
20210301154258 45 333 3.0 5.0 0.07 0.00 0.16 89 1024.4
20210301153758 45 27 1.0 3.0 0.07 0.00 0.16 88 1024.1
20210301153258 45 48 1.0 2.0 0.00 0.00 0.15 89 1024.1
20210301152849 44 67 1.0 2.0 0.00 0.00 0.15 90 1024.0
20210301152308 44 66 1.0 2.0 0.04 0.00 0.15 89 1024.4
20210301151315 44 78 1.0 3.0 0.07 0.00 0.15 89 1023.5
20210301150802 44 158 3.0 6.0 0.11 0.00 0.15 87 1023.9
20210301150257 44 152 3.0 6.0 0.11 0.00 0.13 87 1023.8
20210301145757 44 76 1.0 2.0 0.11 0.00 0.13 87 1024.0
20210301145258 44 102 1.0 3.0 0.16 0.00 0.11 86 1023.9
20210301144757 44 85 1.0 3.0 0.18 0.00 0.11 86 1023.8
20210301144259 44 48 0.0 2.0 0.23 0.00 0.09 84 1023.5
20210301143758 45 48 1.0 2.0 0.26 0.00 0.07 82 1023.7